Weather History for Christchurch, New Zealand

Change the Weather History Date:

Thursday, November 1, 2012

  Actual Average Record
Temperature  
Mean Temperature 60 °F -  
Max Temperature 73 °F 62 °F 77 °F (1999)
Min Temperature 48 °F 43 °F 35 °F (1996)
Degree Days  
Heating Degree Days 4    
Growing Degree Days 10 (Base 50)    
Moisture  
Dew Point 50 °F    
Average Humidity 76    
Maximum Humidity 94    
Minimum Humidity 33    
Precipitation  
Precipitation 0.00 in - - ()
Sea Level Pressure  
Sea Level Pressure 29.77 in    
Wind  
Wind Speed 7 mph ()    
Max Wind Speed 16 mph    
Max Gust Speed -    
Visibility 6.2 miles    
Events      
Averages and records for this station are not official NWS values.
T = Trace of Precipitation, MM = Missing Value Source: Averaged Metar Reports

Daily Weather History Graph

Daily Weather History Graph

Search for Another Location

Airport:

Trip Planner

Search our weather history database for the weather conditions in past years. The results will help you decide how hot, cold, wet, or windy it might be!

Date:

Astronomy

Nov. 01, 2012 Rise Set
Actual Time 6:12 AM NZDT 8:15 PM NZDT
Civil Twilight 5:41 AM NZDT 8:46 PM NZDT
Nautical Twilight 5:02 AM NZDT 9:24 PM NZDT
Astronomical Twilight 4:21 AM NZDT 10:07 PM NZDT
Moon 10:31 PM NZDT (11/1) 7:18 AM NZDT (11/1)
Length of Visible Light 15h 05m
Length of Day
14h 03m
Waning Gibbous, 96% of the Moon is Illuminated
Nov 1
Waning Gibbous
Nov 7
Last Quarter
Nov 14
New
Nov 21
First Quarter
Nov 29
Full

Hourly Weather History & Observations

Time (NZDT) Temp. Dew Point Humidity Pressure Visibility Wind Dir Wind Speed Gust Speed Precip Events Conditions
12:00 AM 50.0 °F 48.2 °F 94% 29.95 in 6.2 mi NNW 3.5 mph - N/A   Scattered Clouds
1:00 AM 51.8 °F 48.2 °F 88% 29.95 in 6.2 mi NNW 4.6 mph - N/A   Partly Cloudy
2:00 AM 51.8 °F 48.2 °F 88% 29.92 in 6.2 mi North 5.8 mph - N/A   Partly Cloudy
3:00 AM 50.0 °F 48.2 °F 94% 29.92 in 6.2 mi North 4.6 mph - N/A   Partly Cloudy
4:00 AM 48.2 °F 46.4 °F 93% 29.89 in 6.2 mi NE 4.6 mph - N/A   Partly Cloudy
5:00 AM 50.0 °F 48.2 °F 94% 29.86 in 6.2 mi ENE 8.1 mph - N/A   Partly Cloudy
6:00 AM 50.0 °F 48.2 °F 94% 29.83 in 6.2 mi ENE 11.5 mph - N/A   Mostly Cloudy
7:00 AM 51.8 °F 50.0 °F 94% 29.83 in 6.2 mi ENE 10.4 mph - N/A   Mostly Cloudy
8:00 AM 53.6 °F 50.0 °F 88% 29.80 in 6.2 mi ENE 12.7 mph - N/A   Mostly Cloudy
9:00 AM 53.6 °F 50.0 °F 88% 29.80 in 6.2 mi ENE 15.0 mph - N/A   Overcast
10:00 AM 55.4 °F 50.0 °F 82% 29.80 in 6.2 mi ENE 16.1 mph - N/A   Mostly Cloudy
11:00 AM 55.4 °F 50.0 °F 82% 29.77 in 6.2 mi ENE 15.0 mph - N/A   Mostly Cloudy
12:00 PM 57.2 °F 51.8 °F 82% 29.74 in 6.2 mi ENE 15.0 mph - N/A   Mostly Cloudy
1:00 PM 60.8 °F 53.6 °F 77% 29.71 in 6.2 mi ENE 11.5 mph - N/A   Partly Cloudy
2:00 PM 62.6 °F 53.6 °F 72% 29.71 in 6.2 mi East 12.7 mph - N/A   Partly Cloudy
3:00 PM 64.4 °F 55.4 °F 73% 29.68 in - ENE 9.2 mph - N/A   Clear
4:00 PM 66.2 °F 55.4 °F 68% 29.68 in - ENE 9.2 mph - N/A   Clear
5:00 PM 66.2 °F 55.4 °F 68% 29.68 in - ENE 9.2 mph - N/A   Clear
6:00 PM 68.0 °F 53.6 °F 60% 29.65 in - NE 9.2 mph - N/A   Clear
7:00 PM 73.4 °F 42.8 °F 33% 29.65 in - WNW 11.5 mph - N/A   Clear
8:00 PM 66.2 °F 46.4 °F 49% 29.65 in - NW 5.8 mph - N/A   Clear
9:00 PM 60.8 °F 51.8 °F 72% 29.65 in - East 3.5 mph - N/A   Clear
10:00 PM 62.6 °F 46.4 °F 55% 29.65 in - NW 1.2 mph - N/A   Clear
11:00 PM 66.2 °F 42.8 °F 43% 29.65 in - NW 8.1 mph - N/A   Clear